Abidjan, Ivory Coast

3:04 AM GMT on October 25, 2014 (GMT +0000)
Felix Houphouet-Boigny | Change Station
CLOSE
Current Station
Airport
Location: Abidjan,
Elevation: 26 ft
Nearby Weather Stations

Elev 26 ft 5.26 °N, 3.93 °W | Updated 34 minutes ago

Mostly Cloudy
Mostly Cloudy
79 °F
Feels Like 79 °F
N
6
Wind Variable Wind from WSW

Today
High -- | Low -- °F
--% Chance of Precip.
Yesterday
High -- | Low -- °F
Precip. -- in
6:00 AM 5:58 PM
New Moon, 2% visible
Pressure 29.83 in
Visibility 5.0 miles
Clouds Scattered Clouds 1100 ft
Mostly Cloudy 2000 ft
Dew Point 75 °F
Humidity 89%
Rainfall 0.00 in
Snow Depth Not available.
UV 0 out of 12
Pollen Not available.
Air Quality Not available.
Flu Activity Not available.
METAR DIAP 250230Z 25005KT 8000 SCT011 BKN020 26/24 Q1010 TEMPO BKN011 BKN040

More Conditions Fewer Conditions

Pressure 29.83 in
Visibility 5.0 miles
Clouds Scattered Clouds 1100 ft
Mostly Cloudy 2000 ft
Dew Point 75 °F
Humidity 89%
Rainfall 0.00 in
Snow Depth Not available.
UV 0 out of 12
Pollen Not available.
Air Quality Not available.
Flu Activity Not available.
METAR DIAP 250230Z 25005KT 8000 SCT011 BKN020 26/24 Q1010 TEMPO BKN011 BKN040

More Conditions Fewer Conditions

10-Day Weather Forecast

Almanac

Astronomy

Oct. 25, 2014 Rise Set
Actual Time 6:00 AM GMT 5:58 PM GMT
Civil Twilight 5:39 AM GMT 6:19 PM GMT
Nautical Twilight 5:15 AM GMT 6:44 PM GMT
Astronomical Twilight 4:50 AM GMT 7:08 PM GMT
Moon 7:13 AM GMT 7:26 PM GMT
Length of Visible Light 12h 40m
Length of Day
11h 57m
Tomorrow will be 0m 14s shorter.
New Moon, 2% of the Moon is Illuminated
Oct 24
New Moon
Oct 30
First Quarter
Nov 6
Full
Nov 14
Last Quarter
Nov 22
New

Yesterday's Extremes

Country Highs Country Lows

Community

WunderPhotos

Upload Photos

1,764,762 photos uploaded!

Nearby

Snow Depth

Not available.

Earthquake Activity

City Distance Mag. Time & Date
No recent earthquake activity has been reported nearby.
Minimum magnitude displayed is 2.5.

Coastal Water Temperatures

Place Temperature
No Stations Reporting

Nearby Weather Stations